Regional Weather Roundup
Issued by NWS

Home | Current Version | Previous Version | Text Only | Print | Product List | Glossary On
Versions: 1 2 3 4 5 6 7 8 9 10 11 12 13 14 15 16 17 18 19 20 21 22 23 24 25 26
000
ASUS42 KTBW 201217
RWRFL
FLORIDA REGIONAL WEATHER ROUNDUP
NATIONAL WEATHER SERVICE TAMPA BAY RUSKIN FL
800 AM EDT THU JUL 20 2017

NOTE: "FAIR" INDICATES FEW OR NO CLOUDS BELOW 12,000 FEET WITH NO
SIGNIFICANT WEATHER AND/OR OBSTRUCTIONS TO VISIBILITY.

FLZ001>010-012>015-112-114-115-201300-
PANHANDLE FLORIDA

CITY           SKY/WX    TMP DP  RH WIND       PRES   REMARKS
PENSACOLA      SUNNY     82  76  81 W5        30.09R
PENSACOLA NAS  MOSUNNY   77  75  93 NW5       30.09R
MILTON NAS     MOSUNNY   77  77 100 W5        30.10
CRESTVIEW      MOSUNNY   76  74  93 CALM      30.10R
DUKE FIELD     FAIR      78  76  95 CALM      30.09R
VALPARAISO     MOSUNNY   78  76  94 W3        30.08R
MARY ESTHER    SUNNY     80  80 100 NW7       30.07R
PANAMA CITY    FAIR      78  75  90 CALM      30.08R
TYNDALL AFB    PTSUNNY   78  77  96 CALM      30.09R
APALACHICOLA   SUNNY     78  78 100 CALM      30.08S

STATION/POSITION SKY/WX   TEMP    WIND        PRES    WAVE   SWELL
                          AIR SEA DIR/SP/G            HT/PER HT/PER
                          (F)     (DEG/KT/KT) (MB)    (FT/S) (FT/S)
30.1N   87.6W              82 86  330/ 10/ 10 1018.5R   1/ 2
29.2N   88.2W              83 84  310/  4/  6 1019.1R   1
28.8N   86.0W              83 84  310/  6/  8 1018.9R   1
PANAMA CITY BEAC           80     350/  3/  5 1019.2R
TOWER C          NOT AVBL
28.5N   84.5W              83 87  320/  4/  6 1018.4    1

$$
FLZ011-016>038-118-127-128-134-139-239-201300-
NORTH FLORIDA

CITY           SKY/WX    TMP DP  RH WIND       PRES   REMARKS
MARIANNA       SUNNY     78  76  93 CALM      30.08R
TALLAHASSEE    MOSUNNY   77  75  93 CALM      30.08S
PERRY          SUNNY     76  74  94 CALM      30.10S
LIVE OAK       SUNNY     73  73 100 CALM      30.10S
CROSS CITY     SUNNY     75  73  93 CALM      30.14R
LAKE CITY      FAIR      72  72 100 CALM      30.09S
GAINESVILLE    SUNNY     75  72  90 CALM      30.12R
WILLISTON      SUNNY     75  75 100 CALM      30.10S
PALATKA        CLOUDY    73  73 100 CALM      30.10R
MAYPORT NAS    MOSUNNY   79  74  84 NW5       30.08S
JACKSONVILLE   MOSUNNY   76  74  93 NW3       30.08R
JAX NAS        MOSUNNY   78  73  84 W3        30.09S
JAX CECIL      SUNNY     75  75 100 CALM      30.09R
FERNANDINA BEA FAIR      81  73  78 NW8       30.07S
ST AUGUSTINE   SUNNY     76  73  91 W3        30.10R
PALM COAST     SUNNY     75  75 100 CALM      30.10R

STATION/POSITION SKY/WX   TEMP    WIND        PRES    WAVE   SWELL
                          AIR SEA DIR/SP/G            HT/PER HT/PER
                          (F)     (DEG/KT/KT) (MB)    (FT/S) (FT/S)
SHELL POINT      NOT AVBL
KEATON BEACH               77      50/  2/  2 1018.7R
CEDAR KEY                  79      80/  5/  6 1019.1R
FERNANDINA                 79 81  270/  5/  7 1019.4R
30.7N   81.3W                 81                N/A     2/ 9
MAYPORT                    77 77  310/  5/  6 1019.0R
31.4N   80.9W              81 81  270/ 10/ 12 1018.1R   2/ 9   2/ 9
ST AUGUSTINE               78 79  250/  1/  3 1019.4R

$$
FLZ040-043>046-052-053-057-058-063-144-201300-
INTERIOR CENTRAL FLORIDA

CITY           SKY/WX    TMP DP  RH WIND       PRES   REMARKS
OCALA          SUNNY     74  73  97 CALM      30.10R FOG
THE VILLAGES     N/A     75  75 100 CALM      30.00R
LEESBURG       MOSUNNY   79  76  90 CALM      30.10R
SANFORD        SUNNY     77  73  87 CALM      30.09R
ORLANDO INTL   MOSUNNY   76  75  97 CALM      30.09R
KISSIMMEE      MOSUNNY   77  75  93 CALM      30.10R
WINTER HAVEN   SUNNY     77  75  93 E3        30.10R
LAKELAND       MOSUNNY   75  75 100 CALM      30.10R
BARTOW         FOG       73 N/A N/A CALM      30.09S VSB 1/2
SEBRING        PTSUNNY   76  74  92 CALM      30.09R FOG
OKEECHOBEE     SUNNY     73  73 100 CALM      30.09S FOG

$$
FLZ041-047-054-059-064-141-147-201300-
EAST CENTRAL FLORIDA

CITY           SKY/WX    TMP DP  RH WIND       PRES   REMARKS
DAYTONA BEACH  MOSUNNY   77  75  93 SW5       30.09R
DELAND         SUNNY     75  73  94 CALM      30.09R
NEW SMYRNA BEA MOSUNNY   77  73  88 W6        30.10R
TITUSVILLE     SUNNY     73  73 100 CALM      30.09R
CAPE CANAVERAL SUNNY     80  78  94 CALM      30.08R
PATRICK AFB    SUNNY     81  78  90 SW3       30.09R
MELBOURNE      SUNNY     78  77  96 CALM      30.09R
VERO BEACH     SUNNY     77  75  93 CALM      30.10R
FT PIERCE      SUNNY     77  76  96 CALM      30.09R
STUART         MOSUNNY   79  79 100 NW3       30.10R

STATION/POSITION SKY/WX   TEMP    WIND        PRES    WAVE   SWELL
                          AIR SEA DIR/SP/G            HT/PER HT/PER
                          (F)     (DEG/KT/KT) (MB)    (FT/S) (FT/S)
28.5N   80.2W              82 83  230/  4/  4 1019.9R   2/ 8   2/ 8
28.9N   78.5W              82 85  210/ 10/ 12 1018.9R   3/ 7   3/ 7
TRIDENT PIER               79 83  360/  2/  3 1020.3R
28.4N   80.5W                 83                N/A     1/ 8
27.5N   80.2W                 83                N/A     2/ 8

$$
FLZ050-056-061-142-242-148-248-149-249-151-251-155-255-
160-260-201300-
WEST CENTRAL FLORIDA

CITY           SKY/WX    TMP DP  RH WIND       PRES   REMARKS
CRYSTAL RIVER  FAIR      73  72  94 CALM      30.10R
INVERNESS      FOG       72  72 100 CALM      30.10R VSB<1/4
BROOKSVILLE    FOG       74  74 100 SE3       30.10R VSB 1/2
CLEARWATER AIR FAIR      79  75  89 CALM      30.09R
ST PETE CLEARW SUNNY     80  75  84 CALM      30.08S
TAMPA INTL     MOSUNNY   80  75  84 CALM      30.09R
TAMPA EXEC     SUNNY     77  73  88 CALM      30.09S
PLANT CITY     SUNNY     79  77  94 CALM      30.11R
MACDILL AFB    MOSUNNY   79  79 100 SE5       30.08S
PETER O KNIGHT CLOUDY    81  81 100 SE3       30.09R
ST PETERSBURG  LGT RAIN  82  77  84 S7        30.07R
SARASOTA       CLOUDY    79  75  87 CALM      30.07S
VENICE         FAIR      79  77  94 CALM      30.09R THUNDER

STATION/POSITION SKY/WX   TEMP    WIND        PRES    WAVE   SWELL
                          AIR SEA DIR/SP/G            HT/PER HT/PER
                          (F)     (DEG/KT/KT) (MB)    (FT/S) (FT/S)
27.3N   84.2W                 87                N/A     1/ 4
CLEARWATER BEACH           80 87  110/  4/  6 1018.6S
MIDDLE TAMPA BAY           80     160/  5/  7 1018.9R
VENICE                     77 88   80/  5/  6 1018.3R

$$
FLZ066-069-070-075>078-162-262-165-265-201300-
SOUTHWEST FLORIDA AND KEYS

CITY           SKY/WX    TMP DP  RH WIND       PRES   REMARKS
PUNTA GORDA    PTSUNNY   78  76  93 S3        30.10R
FT MYERS       CLOUDY    79  74  84 W7        30.09R
SOUTHWEST INTL MOSUNNY   80  77  90 CALM      30.09R
NAPLES         CLOUDY    80  78  94 E3        30.07S
MARCO ISLAND   SUNNY     81  75  83 E3        30.08R
IMMOKALEE      FAIR      79  77  94 CALM      30.10R
MARATHON       MOSUNNY   84  78  82 S6        30.07R HX  95
KEY WEST NAS   MOSUNNY   84  79  85 SE6       30.07R HX  96
KEY WEST INTL  MOSUNNY   85  78  80 SE7       30.07R HX  96

STATION/POSITION SKY/WX   TEMP    WIND        PRES    WAVE   SWELL
                          AIR SEA DIR/SP/G            HT/PER HT/PER
                          (F)     (DEG/KT/KT) (MB)    (FT/S) (FT/S)
NAPLES                        88   90/  3/  5 1018.4R
DRY TORTUGAS               85     170/  2/  3 1018.6R
SAND KEY                   84     160/  7/  9 1018.8R

$$
FLZ067-068-071>074-168-172>174-201300-
SOUTHEAST FLORIDA

CITY           SKY/WX    TMP DP  RH WIND       PRES   REMARKS
W PALM BEACH   PTSUNNY   80  76  87 W6        30.09R
BOCA RATON     MOSUNNY   82  75  78 CALM        N/A
FT LAUDER-EXEC MOSUNNY   81  76  84 NW3       30.07R
FT LAUDERDALE  PTSUNNY   82  77  84 W3        30.07R
POMPANO BEACH  SUNNY     84  77  79 NW3       30.08R
PEMBROKE PINES SUNNY     80  79  96 CALM      30.09R
OPA LOCKA      SUNNY     82  80  94 CALM      30.08R
MIAMI          MOSUNNY   84  77  79 CALM      30.08R
WEST KENDALL   SUNNY     81  77  88 CALM      30.08R
HOMESTEAD      SUNNY     81  79  94 NW3       30.07R

STATION/POSITION SKY/WX   TEMP    WIND        PRES    WAVE   SWELL
                          AIR SEA DIR/SP/G            HT/PER HT/PER
                          (F)     (DEG/KT/KT) (MB)    (FT/S) (FT/S)
PORT EVERGLADES            83     260/  1/  4 1018.3R
VIRGINIA KEY               85 87  160/  3/  5 1017.9R
LAKE WORTH                        270/  2/  5   N/A
FOWEY ROCKS                84 86  160/ 11/ 12 1018.7R
SETTLEMENT POINT           83     150/  8/  9 1019.0R

$$





USA.gov is the U.S. government's official web portal to all federal, state and local government web resources and services.